Location: Chemnitz
(49.5500°N, 11.5830°E)
Time: 16:51:17
(UTC+01:00)

Amateur Radio Satellites - All Passes

Search period start: 23 January 2018 16:21
Search period end: 24 January 2018 16:21
Location: Chemnitz, 49.5500°N, 11.5830°E

Satellite Date Start Highest point End Downlink Frequencies (MHz)
Time Altitude Azimuth
KAITUO 1B 23 Jan 16:24:15 16:26:38 16° 62° (ENE) 16:29:02 145.475/437.950
NO-84 23 Jan 16:24:49 16:27:27 25° 139° (SE) 16:29:58 435.350 FM
BEESAT 23 Jan 16:27:52 16:32:38 63° 289° (WNW) 16:37:22 436.000
AO-7 23 Jan 16:28:13 16:34:31 23° 271° (W) 16:40:52 .
NUDT-PHONESAT 23 Jan 16:30:01 16:32:31 17° 63° (ENE) 16:35:02 437.300
XW-2F 23 Jan 16:30:01 16:33:04 23° 65° (ENE) 16:36:06 145.980 - 146.000
PCSat 23 Jan 16:31:04 16:35:38 27° 35° (NE) 16:40:11 145.827
ITAMSAT 1 23 Jan 16:40:55 16:44:03 16° 272° (W) 16:47:11 435.822/435.867
XW-2D 23 Jan 16:41:38 16:45:05 33° 69° (ENE) 16:48:33 145.860 - 145.880
UKube-1 23 Jan 16:44:30 16:45:09 10° 307° (NW) 16:45:48 .
CUTE-I 23 Jan 16:51:19 16:56:19 43° 66° (ENE) 17:01:20 437.470
AO-85 23 Jan 16:55:48 16:58:26 15° 16° (NNE) 17:01:10 145.980
XW-2B 23 Jan 16:59:04 17:02:46 48° 72° (ENE) 17:06:28 145.730 - 145.750
KKS-1 23 Jan 17:05:13 17:09:03 27° 95° (E) 17:12:53 437.445
BEESAT 2 23 Jan 17:11:04 17:14:38 29° 37° (NE) 17:18:09 435.950
SEEDS 23 Jan 17:12:11 17:14:45 16° 60° (ENE) 17:17:19 437.485
M-CUBED/EXP-1 PRIME 23 Jan 17:13:09 17:15:32 15° 263° (W) 17:17:52 437.505
STARS 23 Jan 17:14:12 17:16:43 15° 89° (E) 17:19:13 437.465
DOVE 4 23 Jan 17:15:52 17:18:56 19° 269° (W) 17:21:57 437.250
RS-15 23 Jan 17:23:04 17:34:31 61° 243° (WSW) 17:45:21 29.354- 29.394
HO-68 23 Jan 17:26:54 17:33:48 55° 64° (ENE) 17:40:45 435.675
ITUPSAT 1 23 Jan 17:28:32 17:32:11 22° 301° (WNW) 17:35:49 437.325
CUTE 1.7 + AOD 2 23 Jan 17:28:40 17:32:31 34° 67° (ENE) 17:36:22 437.475
XW-2C 23 Jan 17:29:28 17:33:18 75° 258° (WSW) 17:37:08 145.795 - 145.815
LilacSat-2 23 Jan 17:30:51 17:34:41 67° 258° (WSW) 17:38:32 437.200
MOZHAYETS 4 23 Jan 17:35:12 17:36:38 11° 307° (NW) 17:38:05
CUBESAT XI-V 23 Jan 17:43:39 17:47:27 26° 297° (WNW) 17:51:14 437.345
BEESAT 3 23 Jan 17:53:51 17:57:37 45° 238° (WSW) 18:01:19 437.485
KAITUO 1B 23 Jan 17:56:35 18:00:14 51° 260° (W) 18:03:56 145.475/437.950
NO-84 23 Jan 18:01:31 18:04:28 53° 337° (NNW) 18:07:17 435.350 FM
NUDT-PHONESAT 23 Jan 18:02:25 18:06:02 46° 261° (W) 18:09:39 437.300
XW-2F 23 Jan 18:03:31 18:07:00 34° 263° (W) 18:10:30 145.980 - 146.000
BEESAT 23 Jan 18:08:03 18:09:29 11° 309° (NW) 18:10:55 436.000
UWE-3 23 Jan 18:08:40 18:12:45 35° 66° (ENE) 18:16:56 435.000/436.395/437.385
CUBEBUG 2 23 Jan 18:08:52 18:13:13 56° 71° (ENE) 18:17:46 437.445
PCSat 23 Jan 18:14:12 18:19:39 81° 237° (WSW) 18:25:04 145.827
XW-2D 23 Jan 18:16:13 18:19:19 23° 266° (W) 18:22:26 145.860 - 145.880
AAUSAT CUBESAT 2 23 Jan 18:19:16 18:22:54 30° 67° (ENE) 18:26:32 437.432
ZACube-1 23 Jan 18:26:13 18:30:06 29° 65° (ENE) 18:34:04 437.345
AO-73 23 Jan 18:31:13 18:35:06 29° 65° (ENE) 18:39:02 145.935
CUTE-I 23 Jan 18:31:47 18:36:29 32° 265° (W) 18:41:14 437.470
STRAND 1 23 Jan 18:33:16 18:36:28 16° 88° (E) 18:39:38 437.568
XW-2B 23 Jan 18:34:44 18:37:12 16° 269° (W) 18:39:40 145.730 - 145.750
AO-85 23 Jan 18:35:44 18:40:09 36° 38° (NE) 18:44:51 145.980
KKS-1 23 Jan 18:41:34 18:45:42 38° 293° (WNW) 18:49:49 437.445
SEEDS 23 Jan 18:45:46 18:49:57 67° 258° (WSW) 18:54:09 437.485
BEESAT 2 23 Jan 18:48:38 18:52:31 46° 238° (WSW) 18:56:19 435.950
STARS 23 Jan 18:49:07 18:53:32 71° 288° (WNW) 18:57:56 437.465
Oscar 11 23 Jan 19:01:13 19:05:10 35° 67° (ENE) 19:09:08 .
CUTE 1.7 + AOD 2 23 Jan 19:04:40 19:08:22 28° 266° (W) 19:12:06 437.475
XW-2A 23 Jan 19:12:08 19:15:34 89° 256° (WSW) 19:19:00 145.665 - 145.685
HO-68 23 Jan 19:15:18 19:21:48 37° 264° (W) 19:28:22 435.675
FO-29 23 Jan 19:23:00 19:26:47 20° 90° (E) 19:30:33 435.910
nSIGHT-1 23 Jan 19:30:43 19:32:52 17° 140° (SE) 19:35:02 .
RS-15 23 Jan 19:38:24 19:44:07 15° 267° (W) 19:49:44 29.354- 29.394
NO-84 23 Jan 19:39:30 19:42:00 26° 358° (N) 19:44:28 435.350 FM
UWE-3 23 Jan 19:45:12 19:49:13 31° 266° (W) 19:53:20 435.000/436.395/437.385
CUBEBUG 2 23 Jan 19:47:01 19:50:13 19° 271° (W) 19:53:31 437.445
AAUSAT CUBESAT 2 23 Jan 19:54:41 19:58:19 29° 265° (W) 20:01:59 437.432
ISS 23 Jan 19:55:20 19:57:47 20° 141° (SE) 20:00:15 437.550
PCSat 23 Jan 19:59:20 20:02:12 15° 256° (WSW) 20:05:03 145.827
ZACube-1 23 Jan 20:02:04 20:06:15 38° 264° (W) 20:10:32 437.345
DELFI C3 23 Jan 20:03:57 20:07:21 29° 67° (ENE) 20:10:46 145.870
AO-73 23 Jan 20:07:00 20:11:11 38° 264° (W) 20:15:28 145.935
Max Valier Satellite 23 Jan 20:07:34 20:10:27 21° 65° (ENE) 20:13:20 145.860
STRAND 1 23 Jan 20:11:06 20:16:16 80° 287° (WNW) 20:21:25 437.568
AO-85 23 Jan 20:16:01 20:20:47 52° 237° (WSW) 20:25:51 145.980
EO-88 23 Jan 20:19:34 20:22:14 19° 64° (ENE) 20:24:54 145.990 - 145.960
STARS 23 Jan 20:27:45 20:29:04 11° 306° (NW) 20:30:23 437.465
TIGRISAT 23 Jan 20:36:56 20:38:00 11° 84° (E) 20:39:03 435.000
Oscar 11 23 Jan 20:37:33 20:41:20 29° 266° (W) 20:45:09 .
YUBILEINY 23 Jan 20:42:31 20:45:20 12° 67° (ENE) 20:48:08 435.215
UNISAT 6 23 Jan 20:51:27 20:54:25 16° 88° (E) 20:57:24 437.425
nSIGHT-1 23 Jan 21:05:29 21:08:38 75° 157° (SSE) 21:11:48 .
FO-29 23 Jan 21:07:17 21:12:26 62° 289° (WNW) 21:17:36 435.910
NO-84 23 Jan 21:16:54 21:19:37 41° 19° (NNE) 21:22:20 435.350 FM
LO-87 23 Jan 21:29:41 21:32:04 17° 63° (ENE) 21:34:27 145.935 - 145.965
ISS 23 Jan 21:30:38 21:33:54 82° 158° (SSE) 21:37:12 437.550
DELFI C3 23 Jan 21:38:40 21:42:03 28° 265° (W) 21:45:28 145.870
Max Valier Satellite 23 Jan 21:40:35 21:44:04 36° 263° (W) 21:47:34 145.860
ESTCUBE 1 23 Jan 21:42:17 21:45:56 25° 63° (ENE) 21:49:35 437.505/2401.250
PRISM 23 Jan 21:46:08 21:47:01 11° 87° (E) 21:47:53 437.425
STRAND 1 23 Jan 21:51:49 21:54:40 15° 307° (NW) 21:57:32 437.568
EO-88 23 Jan 21:52:11 21:55:37 39° 262° (W) 21:59:05 145.990 - 145.960
TIGRISAT 23 Jan 22:10:44 22:15:28 78° 102° (ESE) 22:20:10 435.000
AIST 2D 23 Jan 22:24:41 22:26:05 12° 89° (E) 22:27:29 435.315
UNISAT 6 23 Jan 22:26:55 22:31:38 71° 287° (WNW) 22:36:18 437.425
YUBILEINY 23 Jan 22:31:31 22:39:59 55° 90° (E) 22:48:27 435.215
SPROUT 23 Jan 22:38:45 22:42:03 22° 62° (ENE) 22:45:21 437.525
nSIGHT-1 23 Jan 22:41:46 22:44:54 56° 358° (N) 22:48:02 .
NO-84 23 Jan 22:54:07 22:56:43 34° 218° (SW) 22:59:22 435.350 FM
FO-29 23 Jan 22:54:59 22:56:31 11° 311° (NW) 22:58:04 435.910
LO-87 23 Jan 23:01:43 23:05:08 44° 261° (W) 23:08:37 145.935 - 145.965
VELOX 1 23 Jan 23:04:55 23:08:25 24° 62° (ENE) 23:11:56 145.980
ISS 23 Jan 23:07:17 23:10:31 57° 360° (N) 23:13:46 437.550
DUCHIFAT 1 23 Jan 23:09:59 23:10:57 11° 86° (E) 23:11:55 145.980
EO-79 23 Jan 23:13:43 23:16:20 16° 89° (E) 23:18:56 145.935-145.965
ESTCUBE 1 23 Jan 23:18:09 23:22:30 46° 261° (W) 23:26:52 437.505/2401.250
PRISM 23 Jan 23:18:46 23:22:52 86° 284° (WNW) 23:26:57 437.425
O/OREOS (USA 219) 23 Jan 23:19:23 23:22:43 21° 102° (ESE) 23:26:04 437.305
TIGRISAT 23 Jan 23:48:33 23:51:34 17° 302° (WNW) 23:54:35 435.000
POLYITAN 1 23 Jan 23:48:38 23:52:33 33° 96° (E) 23:56:26 437.675
AIST 2D 23 Jan 23:56:11 23:59:35 55° 287° (WNW) 00:02:59 435.315
NANOSAT C BR1 24 Jan 00:01:12 00:05:15 39° 98° (E) 00:09:14 145.865
UNISAT 6 24 Jan 00:05:42 00:07:30 12° 306° (NW) 00:09:16 437.425
SPROUT 24 Jan 00:13:33 00:17:39 46° 261° (W) 00:21:48 437.525
nSIGHT-1 24 Jan 00:18:02 00:21:13 89° 17° (NNE) 00:24:25 .
QB50P2 24 Jan 00:18:25 00:22:44 74° 103° (ESE) 00:27:00 145.880/145.840
Oscar 19 24 Jan 00:18:40 00:18:56 10° 83° (E) 00:19:11 437.125/150
YUBILEINY 24 Jan 00:28:51 00:37:05 42° 293° (WNW) 00:45:21 435.215
UKube-1 24 Jan 00:29:01 00:32:24 23° 62° (ENE) 00:35:48 .
VELOX 1 24 Jan 00:40:26 00:44:38 44° 261° (W) 00:48:51 145.980
DUCHIFAT 1 24 Jan 00:42:58 00:47:15 89° 85° (E) 00:51:31 145.980
ISS 24 Jan 00:43:51 00:47:09 85° 195° (SSW) 00:50:25 437.550
DX 1 24 Jan 00:46:35 00:50:46 50° 70° (ENE) 00:54:58 434.975-435.025
EO-79 24 Jan 00:48:15 00:52:31 63° 288° (WNW) 00:56:44 145.935-145.965
PRISM 24 Jan 00:56:01 00:57:28 12° 304° (NW) 00:58:55 437.425
50 SAT 24 Jan 00:56:21 00:59:19 48° 72° (ENE) 01:02:20 437.505
O/OREOS (USA 219) 24 Jan 00:57:22 01:01:46 53° 302° (WNW) 01:06:12 437.305
POLYITAN 1 24 Jan 01:24:30 01:28:15 30° 295° (WNW) 01:32:00 437.675
ITUPSAT 1 24 Jan 01:24:57 01:28:12 19° 57° (ENE) 01:31:29 437.325
MOZHAYETS 4 24 Jan 01:25:16 01:29:09 27° 63° (ENE) 01:33:02
BUGSAT 1 24 Jan 01:31:56 01:36:12 72° 102° (ESE) 01:40:27 437.445
NANOSAT C BR1 24 Jan 01:37:15 01:40:47 25° 296° (WNW) 01:44:17 145.865
CUBESAT XI-V 24 Jan 01:39:15 01:40:59 12° 54° (NE) 01:42:42 437.345
AO-91 24 Jan 01:42:29 01:46:58 67° 102° (ESE) 01:51:56 145.960
Oscar 19 24 Jan 01:54:03 01:59:14 68° 102° (ESE) 02:04:22 437.125/150
nSIGHT-1 24 Jan 01:54:31 01:57:06 23° 217° (SW) 01:59:41 .
QB50P2 24 Jan 01:55:26 01:57:58 16° 302° (WNW) 02:00:31 145.880/145.840
BEESAT 24 Jan 02:01:05 02:05:24 35° 65° (ENE) 02:09:45 436.000
UKube-1 24 Jan 02:04:03 02:08:10 45° 261° (W) 02:12:19 .
Gurwin Techsat 1B 24 Jan 02:05:02 02:10:21 65° 103° (ESE) 02:15:37 435.225
DUCHIFAT 1 24 Jan 02:20:17 02:22:16 13° 303° (WNW) 02:24:15 145.980
ISS 24 Jan 02:20:44 02:23:17 21° 218° (SW) 02:25:51 437.550
DX 1 24 Jan 02:24:03 02:27:13 20° 268° (W) 02:30:26 434.975-435.025
AO-7 24 Jan 02:29:51 02:36:14 23° 89° (E) 02:42:32 .
50 SAT 24 Jan 02:30:31 02:31:18 11° 270° (W) 02:32:05 437.505
YUBILEINY 24 Jan 02:34:23 02:37:01 11° 321° (NW) 02:39:38 435.215
O/OREOS (USA 219) 24 Jan 02:40:48 02:42:15 11° 323° (NW) 02:43:43 437.305
ITUPSAT 1 24 Jan 03:00:44 03:05:30 73° 257° (WSW) 03:10:20 437.325
MOZHAYETS 4 24 Jan 03:01:40 03:06:06 43° 262° (W) 03:10:34
ITAMSAT 1 24 Jan 03:07:53 03:11:44 21° 91° (E) 03:15:34 435.822/435.867
BUGSAT 1 24 Jan 03:08:29 03:11:02 16° 301° (WNW) 03:13:35 437.445
CUBESAT XI-V 24 Jan 03:12:51 03:17:31 72° 73° (ENE) 03:22:11 437.345
AO-91 24 Jan 03:19:56 03:23:05 19° 298° (WNW) 03:26:25 145.960
Oscar 19 24 Jan 03:34:13 03:38:05 22° 302° (WNW) 03:41:57 437.125/150
BEESAT 24 Jan 03:38:52 03:43:11 33° 264° (W) 03:47:31 436.000
Gurwin Techsat 1B 24 Jan 03:45:44 03:49:51 23° 302° (WNW) 03:53:58 435.225
SO-50 24 Jan 03:51:35 03:53:49 14° 110° (ESE) 03:56:03 436.795
KKS-1 24 Jan 04:07:01 04:11:12 43° 68° (ENE) 04:15:24 437.445
STARS 24 Jan 04:14:23 04:17:50 23° 62° (ENE) 04:21:18 437.465
AO-7 24 Jan 04:21:39 04:30:06 89° 112° (ESE) 04:38:28 .
ITUPSAT 1 24 Jan 04:43:58 04:44:11 10° 275° (W) 04:44:25 437.325
M-CUBED/EXP-1 PRIME 24 Jan 04:45:47 04:48:05 17° 99° (E) 04:50:21 437.505
ITAMSAT 1 24 Jan 04:46:29 04:51:39 65° 290° (WNW) 04:56:49 435.822/435.867
CUBESAT XI-V 24 Jan 04:52:32 04:55:24 16° 272° (W) 04:58:16 437.345
CUTE-I 24 Jan 05:05:55 05:07:41 12° 85° (E) 05:09:28 437.470
DOVE 4 24 Jan 05:07:43 05:12:05 73° 101° (ESE) 05:16:41 437.250
KAITUO 1B 24 Jan 05:24:54 05:26:07 11° 88° (E) 05:27:20 145.475/437.950
SO-50 24 Jan 05:29:04 05:33:33 88° 130° (SE) 05:38:09 436.795
NUDT-PHONESAT 24 Jan 05:29:28 05:30:55 12° 88° (E) 05:32:20 437.300
XW-2F 24 Jan 05:31:25 05:33:59 17° 91° (E) 05:36:32 145.980 - 146.000
FO-29 24 Jan 05:40:35 05:44:47 19° 56° (NE) 05:48:43 435.910
XW-2D 24 Jan 05:43:37 05:46:49 26° 94° (E) 05:50:00 145.860 - 145.880
KKS-1 24 Jan 05:44:21 05:47:56 24° 266° (W) 05:51:32 437.445
RS-15 24 Jan 05:44:49 05:51:27 17° 94° (E) 05:58:02 29.354- 29.394
STARS 24 Jan 05:49:43 05:53:55 46° 261° (W) 05:58:09 437.465
STRAND 1 24 Jan 05:52:49 05:57:25 36° 64° (ENE) 06:02:04 437.568
XW-2B 24 Jan 06:01:08 06:04:41 38° 98° (E) 06:08:11 145.730 - 145.750
AO-7 24 Jan 06:15:10 06:21:58 29° 313° (NW) 06:28:45 .
M-CUBED/EXP-1 PRIME 24 Jan 06:19:35 06:22:40 34° 298° (WNW) 06:25:40 437.505
SEEDS 24 Jan 06:26:10 06:28:37 15° 89° (E) 06:31:03 437.485
ITAMSAT 1 24 Jan 06:27:55 06:30:10 13° 310° (NW) 06:32:26 435.822/435.867
XW-2C 24 Jan 06:31:35 06:35:22 88° 103° (ESE) 06:39:06 145.795 - 145.815
LilacSat-2 24 Jan 06:33:45 06:37:34 81° 285° (WNW) 06:41:19 437.200
HO-68 24 Jan 06:37:16 06:43:52 38° 96° (E) 06:50:24 435.675
CUTE-I 24 Jan 06:43:19 06:48:41 74° 105° (ESE) 06:53:59 437.470
CUTE 1.7 + AOD 2 24 Jan 06:44:25 06:48:20 36° 96° (E) 06:52:12 437.475
DOVE 4 24 Jan 06:46:40 06:49:20 16° 300° (WNW) 06:52:04 437.250
KAITUO 1B 24 Jan 06:56:51 07:00:32 67° 286° (WNW) 07:04:11 145.475/437.950
NUDT-PHONESAT 24 Jan 07:01:30 07:05:09 63° 287° (WNW) 07:08:46 437.300
XW-2F 24 Jan 07:04:44 07:08:18 42° 290° (WNW) 07:11:49 145.980 - 146.000
SO-50 24 Jan 07:10:58 07:14:36 23° 331° (NNW) 07:18:18 436.795
XW-2D 24 Jan 07:17:42 07:20:59 29° 293° (WNW) 07:24:13 145.860 - 145.880
FO-29 24 Jan 07:22:44 07:29:19 89° 65° (ENE) 07:35:07 435.910
UWE-3 24 Jan 07:29:39 07:34:07 42° 97° (E) 07:38:29 435.000/436.395/437.385
CUBEBUG 2 24 Jan 07:31:23 07:36:10 73° 102° (ESE) 07:40:54 437.445
AAUSAT CUBESAT 2 24 Jan 07:31:44 07:35:24 30° 95° (E) 07:39:01 437.432
STRAND 1 24 Jan 07:31:54 07:36:35 37° 263° (W) 07:41:20 437.568
XW-2B 24 Jan 07:35:48 07:38:37 20° 296° (WNW) 07:41:27 145.730 - 145.750
TIGRISAT 24 Jan 07:38:43 07:41:33 17° 58° (ENE) 07:44:27 435.000
O/OREOS (USA 219) 24 Jan 07:45:19 07:48:05 16° 42° (NE) 07:50:48 437.305
ZACube-1 24 Jan 07:45:42 07:49:51 33° 95° (E) 07:53:53 437.345
RS-15 24 Jan 07:49:18 08:01:17 61° 117° (ESE) 08:13:03 29.354- 29.394
AO-73 24 Jan 07:50:19 07:54:25 32° 95° (E) 07:58:24 145.935
UNISAT 6 24 Jan 07:54:03 07:57:38 24° 62° (ENE) 08:01:16 437.425
SEEDS 24 Jan 08:00:35 08:04:43 62° 287° (WNW) 08:08:48 437.485
XW-2A 24 Jan 08:01:48 08:05:06 49° 100° (E) 08:08:21 145.665 - 145.685
XW-2C 24 Jan 08:08:00 08:08:55 11° 302° (WNW) 08:09:49 145.795 - 145.815
AO-7 24 Jan 08:10:10 08:11:59 11° 339° (NNW) 08:13:48 .
Oscar 11 24 Jan 08:19:38 08:23:43 38° 97° (E) 08:27:44 .
CUTE 1.7 + AOD 2 24 Jan 08:20:29 08:24:03 26° 295° (WNW) 08:27:33 437.475
CUTE-I 24 Jan 08:24:17 08:28:12 21° 303° (WNW) 08:32:06 437.470
HO-68 24 Jan 08:24:55 08:31:50 54° 296° (WNW) 08:38:44 435.675
YUBILEINY 24 Jan 08:36:06 08:43:57 35° 64° (ENE) 08:51:42 435.215
PRISM 24 Jan 08:38:34 08:40:55 15° 59° (ENE) 08:43:16 437.425
SO-50 24 Jan 08:54:37 08:56:42 13° 355° (N) 08:58:48 436.795
PCSat 24 Jan 09:00:09 09:05:06 38° 114° (ESE) 09:10:05 145.827
UWE-3 24 Jan 09:06:24 09:10:23 28° 296° (WNW) 09:14:18 435.000/436.395/437.385
Max Valier Satellite 24 Jan 09:06:39 09:08:55 15° 90° (E) 09:11:08 145.860
AAUSAT CUBESAT 2 24 Jan 09:07:13 09:10:48 29° 294° (WNW) 09:14:22 437.432
CUBEBUG 2 24 Jan 09:09:01 09:12:15 18° 301° (WNW) 09:15:28 437.445
DELFI C3 24 Jan 09:10:30 09:13:49 26° 94° (E) 09:17:08 145.870
FO-29 24 Jan 09:10:56 09:15:01 17° 271° (W) 09:18:52 435.910
TIGRISAT 24 Jan 09:13:10 09:17:40 76° 257° (WSW) 09:22:18 435.000
EO-88 24 Jan 09:17:19 09:19:05 13° 89° (E) 09:20:51 145.990 - 145.960
ZACube-1 24 Jan 09:22:00 09:26:06 33° 294° (WNW) 09:30:07 437.345
BEESAT 3 24 Jan 09:23:19 09:27:16 70° 127° (SE) 09:31:16 437.485
O/OREOS (USA 219) 24 Jan 09:23:42 09:28:12 85° 64° (ENE) 09:32:42 437.305
AO-73 24 Jan 09:26:32 09:30:37 33° 294° (WNW) 09:34:37 145.935
UNISAT 6 24 Jan 09:29:41 09:34:02 49° 261° (W) 09:38:31 437.425
XW-2A 24 Jan 09:35:39 09:37:24 14° 298° (WNW) 09:39:08 145.665 - 145.685
QB50P2 24 Jan 09:41:41 09:43:44 13° 57° (ENE) 09:45:47 145.880/145.840
Oscar 11 24 Jan 09:56:05 09:59:42 26° 296° (WNW) 10:03:17 .
RS-15 24 Jan 10:01:57 10:14:06 59° 324° (NW) 10:25:56 29.354- 29.394
DUCHIFAT 1 24 Jan 10:04:56 10:07:24 15° 58° (ENE) 10:09:53 145.980
EO-79 24 Jan 10:09:52 10:13:04 21° 62° (ENE) 10:16:17 145.935-145.965
PRISM 24 Jan 10:11:39 10:15:41 68° 257° (WSW) 10:19:45 437.425
HO-68 24 Jan 10:14:19 10:18:04 15° 318° (NW) 10:21:49 435.675
BEESAT 2 24 Jan 10:19:58 10:23:59 73° 126° (SE) 10:28:02 435.950
LO-87 24 Jan 10:25:43 10:26:50 11° 88° (E) 10:27:57 145.935 - 145.965
YUBILEINY 24 Jan 10:32:47 10:41:24 66° 267° (W) 10:49:57 435.215
AIST 2D 24 Jan 10:33:39 10:37:10 83° 257° (WSW) 10:40:42 435.315
SO-50 24 Jan 10:35:57 10:39:00 17° 20° (NNE) 10:42:05 436.795
AO-85 24 Jan 10:35:57 10:38:35 17° 111° (ESE) 10:41:21 145.980
Max Valier Satellite 24 Jan 10:39:24 10:43:00 48° 288° (WNW) 10:46:33 145.860
PCSat 24 Jan 10:43:14 10:48:26 45° 315° (NW) 10:53:40 145.827
POLYITAN 1 24 Jan 10:44:49 10:48:51 43° 69° (ENE) 10:52:55 437.675
DELFI C3 24 Jan 10:45:04 10:48:35 32° 292° (WNW) 10:52:06 145.870
EO-88 24 Jan 10:49:29 10:53:04 55° 287° (WNW) 10:56:36 145.990 - 145.960
BUGSAT 1 24 Jan 10:53:04 10:54:42 12° 56° (NE) 10:56:20 437.445
NANOSAT C BR1 24 Jan 10:56:53 11:00:58 50° 70° (ENE) 11:05:06 145.865
BEESAT 3 24 Jan 11:02:00 11:05:11 22° 327° (NNW) 11:08:23 437.485
O/OREOS (USA 219) 24 Jan 11:04:58 11:06:55 13° 262° (W) 11:08:52 437.305
ESTCUBE 1 24 Jan 11:06:13 11:10:03 27° 94° (E) 11:13:52 437.505/2401.250
QB50P2 24 Jan 11:14:37 11:18:52 88° 255° (WSW) 11:23:11 145.880/145.840
Oscar 19 24 Jan 11:37:11 11:41:25 26° 60° (ENE) 11:45:40 437.125/150
DUCHIFAT 1 24 Jan 11:38:19 11:42:31 73° 257° (WSW) 11:46:47 145.980
EO-79 24 Jan 11:44:24 11:48:31 49° 260° (W) 11:52:41 145.935-145.965
AO-7 24 Jan 11:45:20 11:50:08 17° 34° (NE) 11:54:56 .
Gurwin Techsat 1B 24 Jan 11:51:53 11:56:17 27° 60° (ENE) 12:00:41 435.225
SPROUT 24 Jan 11:54:56 11:58:17 22° 92° (E) 12:01:37 437.525
LO-87 24 Jan 11:57:02 12:00:40 67° 286° (WNW) 12:04:15 145.935 - 145.965
BEESAT 2 24 Jan 11:58:53 12:02:07 22° 327° (NNW) 12:05:22 435.950
AO-85 24 Jan 12:14:22 12:18:25 68° 313° (NW) 12:22:50 145.980
SO-50 24 Jan 12:15:58 12:20:31 48° 43° (NE) 12:25:08 436.795
RS-15 24 Jan 12:18:22 12:29:33 39° 356° (N) 12:40:18 29.354- 29.394
POLYITAN 1 24 Jan 12:21:26 12:24:48 22° 267° (W) 12:28:12 437.675
BUGSAT 1 24 Jan 12:25:14 12:29:21 87° 78° (ENE) 12:33:34 437.445
VELOX 1 24 Jan 12:26:00 12:29:38 24° 94° (E) 12:33:15 145.980
PCSat 24 Jan 12:29:49 12:33:14 17° 339° (NNW) 12:36:39 145.827
YUBILEINY 24 Jan 12:31:57 12:36:24 15° 290° (WNW) 12:40:51 435.215
NANOSAT C BR1 24 Jan 12:33:53 12:36:57 19° 269° (W) 12:40:02 145.865
ESTCUBE 1 24 Jan 12:42:47 12:46:57 38° 293° (WNW) 12:51:06 437.505/2401.250
AO-91 24 Jan 12:44:37 12:48:03 87° 76° (ENE) 12:51:44 145.960
QB50P2 24 Jan 12:54:33 12:55:19 10° 274° (W) 12:56:06 145.880/145.840
Oscar 19 24 Jan 13:15:19 13:20:25 56° 259° (W) 13:25:34 437.125/150
SPROUT 24 Jan 13:30:16 13:34:23 45° 291° (WNW) 13:38:28 437.525
Gurwin Techsat 1B 24 Jan 13:30:44 13:35:55 54° 259° (W) 13:41:10 435.225
AO-7 24 Jan 13:33:05 13:40:59 49° 58° (ENE) 13:48:57 .
50 SAT 24 Jan 13:38:15 13:40:37 19° 95° (E) 13:42:56 437.505
UKube-1 24 Jan 13:46:52 13:50:10 21° 93° (E) 13:53:27 .
AO-85 24 Jan 13:56:40 13:59:42 18° 336° (NNW) 14:02:54 145.980
SO-50 24 Jan 13:56:42 14:00:51 31° 242° (WSW) 14:05:03 436.795
VELOX 1 24 Jan 14:02:05 14:06:13 41° 292° (WNW) 14:10:22 145.980
BUGSAT 1 24 Jan 14:04:19 14:05:20 11° 274° (W) 14:06:22 437.445
DX 1 24 Jan 14:06:10 14:10:25 50° 100° (E) 14:14:38 434.975-435.025
PCSat 24 Jan 14:16:45 14:18:59 12° 5° (N) 14:21:13 145.827
BEESAT 3 24 Jan 14:22:32 14:23:27 11° 14° (NNE) 14:24:20 437.485
ITAMSAT 1 24 Jan 14:29:41 14:34:38 48° 67° (ENE) 14:39:36 435.822/435.867
RS-15 24 Jan 14:33:41 14:45:20 51° 29° (NNE) 14:56:20 29.354- 29.394
DOVE 4 24 Jan 14:42:10 14:44:33 15° 59° (ENE) 14:46:56 437.250
MOZHAYETS 4 24 Jan 14:52:08 14:56:18 32° 95° (E) 15:00:25
ITUPSAT 1 24 Jan 14:57:22 15:01:01 21° 91° (E) 15:04:39 437.325
CUBESAT XI-V 24 Jan 15:06:38 15:08:45 13° 86° (E) 15:10:52 437.345
50 SAT 24 Jan 15:09:38 15:12:18 26° 292° (WNW) 15:14:57 437.505
BEESAT 2 24 Jan 15:19:31 15:20:48 11° 15° (NNE) 15:22:04 435.950
UKube-1 24 Jan 15:22:16 15:26:25 47° 291° (WNW) 15:30:33 .
AO-7 24 Jan 15:25:45 15:33:47 49° 259° (W) 15:41:54 .
HO-68 24 Jan 15:28:09 15:31:00 13° 38° (NE) 15:33:51 435.675
M-CUBED/EXP-1 PRIME 24 Jan 15:33:49 15:37:54 58° 67° (ENE) 15:41:43 437.505
BEESAT 24 Jan 15:33:50 15:38:26 44° 99° (E) 15:43:01 436.000
AO-85 24 Jan 15:40:04 15:41:55 12° 1° (N) 15:43:49 145.980
DX 1 24 Jan 15:42:59 15:46:17 22° 299° (WNW) 15:49:35 434.975-435.025
LilacSat-2 24 Jan 15:48:18 15:49:20 11° 58° (ENE) 15:50:21 437.200
NO-84 24 Jan 15:48:24 15:50:45 19° 137° (SE) 15:53:00 435.350 FM
BEESAT 3 24 Jan 15:58:47 16:02:14 28° 37° (NE) 16:05:38 437.485
PCSat 24 Jan 16:00:13 16:04:29 23° 31° (NNE) 16:08:44 145.827
KAITUO 1B 24 Jan 16:09:07 16:10:27 12° 59° (ENE) 16:11:47 145.475/437.950
ITAMSAT 1 24 Jan 16:09:56 16:14:19 27° 266° (W) 16:18:43 435.822/435.867
NUDT-PHONESAT 24 Jan 16:12:48 16:14:13 12° 59° (ENE) 16:15:37 437.300
